STARLINK-5750, 55594

Orbit data source: Space-Track

STARLINK-5750, 55594 is a payload satellite owned by SpaceX/Seattle (US) in LEO that was launched on Sun, 12 Feb 2023 UTC via an FALCON 9 launch vehicle from the Air Force Eastern Test Range (AFETR). Payload-class satellites include a variety of spacecraft equipped with specific instruments for various scientific and technological missions. These include communications satellites like Starlink; space stations such as the ISS; scientific satellites like the Hubble; Earth observation satellites from companies like Planet Labs, Umbra, and HawkEye 360; GPS; miniature CubeSats for education and research; and military/defense satellites.

Loading next visibility...
Identifier
55594, 2023-020AB
Orbit
LEO
Country
Flag of USUS
Related business
Manufacturer
SpaceX/Seattle
Mission
Operational Commercial Communications
Bus & Motor
STARLINK, Unknown motor
Mass
305 kg wet, ~290 kg dry
Launch date (UTC)
2023-02-12 (3 years ago)
Launch vehicle
FALCON 9
Launch site
Air Force Eastern Test Range (AFETR)
Object type
Payload
Rocket body
Debris
Shape & HBR
Box + 1 Pan, 4.4 m
Radar Cross Section
13.562 m², Large (>1 m²)

Expand to show TLE details & history
Last TLE update: 1 day ago

TLE from 1 day ago
0 STARLINK-5750
1 55594U 23020AB  25259.64996998  .00001148  00000-0  10001-3 0  9997
2 55594  43.0035 229.9448 0001167 263.0070  97.0640 15.02536975142743
Epoch: 2025-09-16T15:35Z
TLE epoch observation values (Epoch: 2025-09-16T15:35:57.406Z)
Latitude
0.00001°
Longitude
0.11839°
Altitude
558.954 km
Speed
7.584 km/s
True Right ascension
15h 19m 46s
True Declination
0° 00' 00"
Sunlit
Object was in daylight at epoch
Visualization orbit readout
Latitude
Unknown
Longitude
Unknown
Altitude
Unknown
Speed
Unknown
Apparent Right ascension
Unknown
Apparent Declination
Unknown
Sunlit
N/A
Visualization observer readout
Local Sidereal Time
14:08:52
Azimuth
Unknown
Elevation
Unknown
Doppler factor
Unknown
Orbital elements
Apogee altitude
561.81 km
Perigee altitude
560.19 km
Semi-major axis
6,939.137 km
Eccentricity
0.00012
Inclination
43.0035°
RAAN
229.9448°
Arg. of periapsis
263.007°
True anomaly
97.07727°
Mean anomaly
97.064°
Eccentric anomaly
97.07064°
Mean motion
3.75478 °/min
Orbital period
95.88 mins
BSTAR
0.00010001
Loading maneuver chart data...
Computing Atmospheric mass density...
Loading historical data...
Loading historical data...
Loading historical data...
Loading historical data...
Loading historical data...
Loading historical data...
Loading historical data...

Documentation

Showing up to 5 results
|